Location: Canazei
(46.4667°N, 11.7667°E)
Time: 04:03:23
(UTC+00:00)

Meteor 1-28 Rocket - Pass Details

Date: 21 April 2021
Orbit: 502 x 522 km, 97.4° (Epoch: 10 May)

Event Time Altitude Azimuth Distance (km) Brightness Sun altitude
Exits shadow 01:23:53 43° 90° (E) 725 4.1 -24.6°
Maximum altitude 01:24:14 44° 72° (ENE) 708 4.1 -24.5°
Drops below altitude 10° 01:27:47 10° 360° (N) 1,729 6.5 -24.2°
Sets 01:29:56 0° 354° (N) 2,617 7.5 -23.9°
